Weather History for Bentonville, AR

Change the Weather History Date:

Sunday, October 14, 2012

  Actual Average Record
Temperature  
Mean Temperature 61 °F -  
Max Temperature 71 °F 72 °F 89 °F (1963)
Min Temperature 51 °F 46 °F 31 °F (1982)
Degree Days  
Heating Degree Days 4    
Growing Degree Days 11 (Base 50)    
Moisture  
Dew Point 52 °F    
Average Humidity 68    
Maximum Humidity 94    
Minimum Humidity 40    
Precipitation  
Precipitation 0.01 in - - ()
Sea Level Pressure  
Sea Level Pressure 29.91 in    
Wind  
Wind Speed 11 mph (West)    
Max Wind Speed 16 mph    
Max Gust Speed 23 mph    
Visibility 10 miles    
Events Thunderstorm    
Averages and records for this station are not official NWS values.
T = Trace of Precipitation, MM = Missing Value Source: NWS Daily Summary

Daily Weather History Graph

Daily Weather History Graph

Search for Another Location

Airport:

Trip Planner

Search our weather history database for the weather conditions in past years. The results will help you decide how hot, cold, wet, or windy it might be!

Date:

Astronomy

Oct. 14, 2012 Rise Set
Actual Time 7:23 AM CDT 6:41 PM CDT
Civil Twilight 6:57 AM CDT 7:07 PM CDT
Nautical Twilight 6:27 AM CDT 7:37 PM CDT
Astronomical Twilight 5:57 AM CDT 8:06 PM CDT
Moon 6:23 AM CDT (10/14) 6:02 PM CDT (10/14)
Length of Visible Light 12h 09m
Length of Day
11h 17m
Waning Crescent, 1% of the Moon is Illuminated
Oct 14
Waning Crescent
Oct 15
New
Oct 21
First Quarter
Oct 29
Full
Nov 6
Last Quarter

Hourly Weather History & Observations

Time (CDT) Temp. Dew Point Humidity Pressure Visibility Wind Dir Wind Speed Gust Speed Precip Events Conditions
12:35 AM 64.4 °F 60.8 °F 88% 29.76 in 10.0 mi South 11.5 mph 18.4 mph N/A Thunderstorm Overcast
12:55 AM 64.4 °F 60.8 °F 88% 29.75 in 10.0 mi South 10.4 mph 16.1 mph 0.01 in   Overcast
1:15 AM 64.4 °F 60.8 °F 88% 29.75 in 10.0 mi South 9.2 mph 18.4 mph N/A   Overcast
2:15 AM 64.4 °F 60.8 °F 88% 29.74 in 10.0 mi SSW 11.5 mph 19.6 mph N/A   Overcast
2:55 AM 64.4 °F 60.8 °F 88% 29.73 in 10.0 mi SSW 10.4 mph 16.1 mph N/A   Overcast
3:15 AM 64.4 °F 60.8 °F 88% 29.73 in 10.0 mi SSW 11.5 mph 16.1 mph N/A   Overcast
3:36 AM 64.4 °F 60.8 °F 88% 29.72 in 10.0 mi SSW 10.4 mph - N/A   Overcast
3:55 AM 64.4 °F 60.8 °F 88% 29.72 in 10.0 mi SSW 15.0 mph 19.6 mph N/A   Mostly Cloudy
4:15 AM 62.6 °F 60.8 °F 94% 29.72 in 10.0 mi SW 13.8 mph 18.4 mph N/A   Partly Cloudy
4:36 AM 62.6 °F 59.0 °F 88% 29.72 in 10.0 mi SW 11.5 mph 19.6 mph N/A   Clear
4:55 AM 62.6 °F 59.0 °F 88% 29.74 in 10.0 mi SW 13.8 mph 21.9 mph N/A   Mostly Cloudy
5:15 AM 62.6 °F 57.2 °F 82% 29.75 in 10.0 mi SW 11.5 mph 21.9 mph N/A   Scattered Clouds
5:55 AM 62.6 °F 57.2 °F 82% 29.76 in 10.0 mi SW 10.4 mph - N/A   Clear
6:15 AM 60.8 °F 57.2 °F 88% 29.76 in 10.0 mi SW 11.5 mph - N/A   Clear
6:35 AM 60.8 °F 55.4 °F 82% 29.77 in 10.0 mi SW 12.7 mph - N/A   Clear
6:56 AM 60.8 °F 55.4 °F 82% 29.78 in 10.0 mi SW 11.5 mph - N/A   Clear
7:15 AM 60.8 °F 53.6 °F 77% 29.78 in 10.0 mi SW 11.5 mph 16.1 mph N/A   Clear
7:35 AM 59.0 °F 53.6 °F 82% 29.80 in 10.0 mi SW 10.4 mph - N/A   Clear
7:55 AM 59.0 °F 53.6 °F 82% 29.83 in 10.0 mi WSW 12.7 mph - N/A   Clear
8:15 AM 60.8 °F 53.6 °F 77% 29.85 in 10.0 mi WSW 15.0 mph - N/A   Clear
8:35 AM 60.8 °F 51.8 °F 72% 29.86 in 10.0 mi WSW 13.8 mph 17.3 mph N/A   Mostly Cloudy
8:55 AM 60.8 °F 51.8 °F 72% 29.88 in 10.0 mi West 10.4 mph - N/A   Overcast
9:15 AM 60.8 °F 51.8 °F 72% 29.89 in 10.0 mi West 10.4 mph 17.3 mph N/A   Overcast
9:36 AM 62.6 °F 51.8 °F 68% 29.90 in 10.0 mi West 10.4 mph - N/A   Scattered Clouds
9:55 AM 60.8 °F 51.8 °F 72% 29.90 in 10.0 mi West 11.5 mph - N/A   Scattered Clouds
10:15 AM 62.6 °F 53.6 °F 72% 29.91 in 10.0 mi WSW 11.5 mph - N/A   Partly Cloudy
10:55 AM 64.4 °F 53.6 °F 68% 29.93 in 10.0 mi West 13.8 mph 19.6 mph N/A   Mostly Cloudy
11:15 AM 64.4 °F 53.6 °F 68% 29.94 in 10.0 mi West 11.5 mph 17.3 mph N/A   Mostly Cloudy
11:55 AM 66.2 °F 53.6 °F 64% 29.98 in 10.0 mi WNW 15.0 mph 19.6 mph N/A   Overcast
12:15 PM 66.2 °F 53.6 °F 64% 29.97 in 10.0 mi West 15.0 mph 20.7 mph N/A   Mostly Cloudy
12:55 PM 68.0 °F 53.6 °F 60% 29.99 in 10.0 mi West 11.5 mph - N/A   Scattered Clouds
1:15 PM 68.0 °F 53.6 °F 60% 29.99 in 10.0 mi WNW 11.5 mph 19.6 mph N/A   Scattered Clouds
1:35 PM 69.8 °F 53.6 °F 56% 29.98 in 10.0 mi West 15.0 mph 19.6 mph N/A   Scattered Clouds
1:56 PM 69.8 °F 51.8 °F 53% 29.98 in 10.0 mi West 13.8 mph 19.6 mph N/A   Scattered Clouds
2:15 PM 69.8 °F 51.8 °F 53% 29.98 in 10.0 mi WNW 16.1 mph 23.0 mph N/A   Mostly Cloudy
2:35 PM 69.8 °F 51.8 °F 53% 29.98 in 10.0 mi West 13.8 mph 21.9 mph N/A   Scattered Clouds
2:55 PM 69.8 °F 51.8 °F 53% 29.98 in 10.0 mi West 12.7 mph 23.0 mph N/A   Partly Cloudy
3:15 PM 71.6 °F 48.2 °F 43% 29.98 in 10.0 mi WNW 11.5 mph 20.7 mph N/A   Partly Cloudy
3:35 PM 71.6 °F 48.2 °F 43% 29.99 in 10.0 mi NW 11.5 mph 19.6 mph N/A   Clear
3:55 PM 71.6 °F 46.4 °F 41% 30.00 in 10.0 mi WNW 13.8 mph 21.9 mph N/A   Clear
4:16 PM 71.6 °F 46.4 °F 41% 30.00 in 10.0 mi NW 13.8 mph 17.3 mph N/A   Clear
4:35 PM 71.6 °F 46.4 °F 41% 30.00 in 10.0 mi WNW 13.8 mph 19.6 mph N/A   Clear
4:55 PM 69.8 °F 46.4 °F 43% 29.99 in 10.0 mi WNW 13.8 mph 19.6 mph N/A   Clear
5:35 PM 69.8 °F 46.4 °F 43% 30.00 in 10.0 mi WNW 9.2 mph - N/A   Clear
5:55 PM 69.8 °F 44.6 °F 40% 30.01 in 10.0 mi WNW 12.7 mph 17.3 mph N/A   Clear
6:15 PM 68.0 °F 44.6 °F 43% 30.02 in 10.0 mi NW 8.1 mph - N/A   Clear
6:35 PM 66.2 °F 46.4 °F 49% 30.02 in 10.0 mi WNW 6.9 mph - N/A   Clear
6:36 PM 66.2 °F 46.4 °F 49% 30.02 in 10.0 mi WNW 6.9 mph - N/A   Clear
6:55 PM 64.4 °F 46.4 °F 52% 30.02 in 10.0 mi WNW 5.8 mph - N/A   Clear
7:15 PM 62.6 °F 46.4 °F 55% 30.02 in 10.0 mi West 4.6 mph - N/A   Clear
7:55 PM 60.8 °F 46.4 °F 59% 30.03 in 10.0 mi West 3.5 mph - N/A   Clear
8:15 PM 57.2 °F 46.4 °F 67% 30.03 in 10.0 mi West 3.5 mph - N/A   Clear
8:35 PM 57.2 °F 46.4 °F 67% 30.03 in 10.0 mi WNW 4.6 mph - N/A   Clear
9:15 PM 55.4 °F 44.6 °F 67% 30.04 in 10.0 mi Calm Calm - N/A   Clear
9:35 PM 53.6 °F 46.4 °F 77% 30.05 in 10.0 mi Calm Calm - N/A   Clear
10:15 PM 53.6 °F 46.4 °F 77% 30.06 in 10.0 mi Calm Calm - N/A   Clear
10:35 PM 53.6 °F 46.4 °F 77% 30.07 in 10.0 mi Calm Calm - N/A   Clear
10:55 PM 51.8 °F 44.6 °F 76% 30.07 in 10.0 mi Calm Calm - N/A   Clear
11:35 PM 51.8 °F 44.6 °F 76% 30.06 in 10.0 mi Calm Calm - N/A   Clear
11:55 PM 51.8 °F 44.6 °F 76% 30.06 in 10.0 mi Calm Calm - N/A   Clear